{"data":{"norad_id":68043,"intl_designator":"2026-041D","name":"STARLINK-36902","alt_names":[],"object_type":"PAYLOAD","status":"ACTIVE","operator":null,"country":"US","launch_date":"2026-03-02","launch_site_code":"AFETR","launch_vehicle":null,"mission":null,"orbit_class":"UNKNOWN","rcs_meters":null,"size_class":null,"mass_kg":null,"dimensions":null,"purposes":["comms"],"wikipedia_slug":null,"has_3d_model":false,"image_url":null,"decayed_at":null,"tle_current":{"epoch":"2026-09-20T04:33:33.878016Z","epoch_age_seconds":86418,"freshness":"FRESH","line1":"1 68043U 26041D   26263.18997544  .00016485  00000+0  49786-3 0  9990","line2":"2 68043  53.1609 223.1385 0001789  75.0403 285.0797 15.34406711 31212","mean_motion":15.34406711,"eccentricity":0.0001789,"inclination_deg":53.1609,"raan_deg":223.1385,"arg_perigee_deg":75.0403,"mean_anomaly_deg":285.0797,"bstar":0.00049786,"rev_number":3121,"period_min":93.847347621513,"perigee_km":461.45947102297,"apogee_km":463.90711652408,"semimajor_km":6840.8202937735,"source":"CELESTRAK","updated_at":"2026-09-20T09:00:43.747475Z"}}}